Date,TemperatureHighF,TemperatureAvgF,TemperatureLowF,DewpointHighF,DewpointAvgF,DewpointLowF,HumidityHigh,HumidityAvg,HumidityLow,PressureMaxIn,PressureMinIn,WindSpeedMaxMPH,WindSpeedAvgMPH,GustSpeedMaxMPH,PrecipitationSumIn
2013-1-8,27,26,25,20,19,19,75,74,74,30.07,30.07,7,3,7,0.00
2013-1-9,22,17,11,13,10,5,76,72,69,30.25,30.04,0,0,0,0.00
2013-1-11,18,17,16,10,10,9,74,73,71,29.79,29.77,4,2,4,0.00
2013-1-12,1,1,0,-8,-9,-9,64,63,63,30.09,30.09,0,0,0,0.00
2013-1-17,2,1,0,-6,-7,-8,68,67,67,30.34,30.33,3,1,3,0.00
2013-1-18,31,30,29,17,17,16,58,57,57,30.17,30.17,3,2,3,0.00
2013-1-19,19,19,19,9,9,9,65,65,65,30.25,30.25,4,3,4,0.00
2013-1-22,31,23,11,18,13,5,76,65,58,30.24,30.18,4,1,4,0.00
2013-1-23,23,22,21,15,14,13,74,72,69,30.18,30.16,2,1,2,0.00
2013-1-24,20,15,13,13,9,7,79,76,72,30.15,30.11,6,1,6,0.00
2013-1-25,45,43,41,30,30,29,61,60,56,30.15,30.12,5,2,5,0.00
2013-1-26,39,39,39,28,28,28,64,64,64,29.93,29.93,1,0,1,0.00
2013-1-27,44,36,29,32,28,22,81,71,61,29.84,29.71,14,3,14,0.00
2013-1-28,36,27,10,26,20,3,83,74,65,29.91,29.84,4,1,4,0.03
2013-1-29,28,13,4,17,5,-3,77,70,56,29.99,29.83,6,2,6,0.00
2013-2-1,43,36,33,27,25,24,68,64,46,30.16,30.13,6,2,6,0.00
2013-2-3,38,26,18,26,17,11,76,68,61,30.09,30.05,4,1,4,0.00
2013-2-4,48,32,17,27,20,11,78,62,42,30.08,29.96,10,3,10,0.00
2013-2-5,48,32,20,31,22,14,78,68,51,30.06,29.92,4,1,4,0.00
2013-2-6,47,25,16,29,17,11,82,73,39,30.02,29.93,5,1,5,0.00
2013-2-8,38,35,32,25,24,22,76,66,54,29.92,29.91,4,2,4,0.00
2013-2-10,28,27,27,18,17,16,66,65,63,30.05,30.04,5,3,5,0.02
2013-2-17,36,34,32,24,23,22,69,65,62,29.95,29.89,4,3,4,0.00
2013-2-18,39,31,16,22,17,10,77,58,46,30.12,30.06,5,2,5,0.00
2013-2-19,31,26,22,20,17,14,72,68,64,29.97,29.93,3,2,3,0.00
2013-2-21,24,24,22,16,15,14,71,70,68,29.98,29.97,2,1,2,0.00
2013-2-22,21,16,12,13,9,5,76,74,70,30.03,29.98,2,1,2,0.00
2013-2-24,34,34,33,23,23,22,65,64,64,30.16,30.16,0,0,0,0.00
2013-2-27,37,29,16,19,14,5,64,54,45,30.30,30.24,8,3,8,0.00
2013-2-28,33,15,9,19,6,1,73,68,56,30.30,30.27,3,2,3,0.00
2013-3-1,39,34,30,27,24,21,73,67,57,30.38,30.35,3,1,4,0.00
2013-3-2,44,37,29,31,27,21,73,67,61,30.38,30.12,2,1,2,0.00
2013-3-3,46,37,32,34,31,28,85,79,63,29.92,29.86,4,2,4,0.00
2013-3-4,34,30,24,18,15,14,63,55,50,30.28,30.23,4,1,4,0.00
2013-3-6,56,51,46,32,28,25,48,42,37,29.95,29.84,6,2,6,0.00
2013-3-9,43,39,37,28,25,21,68,58,42,30.07,29.92,12,4,12,0.00
2013-3-10,55,52,47,27,24,23,44,34,29,30.25,30.09,5,2,5,0.00
2013-3-11,50,39,28,25,20,12,71,51,23,30.23,30.07,13,3,13,0.00
2013-3-12,57,40,28,30,25,20,76,57,29,30.30,30.16,9,2,9,0.00
2013-3-14,71,61,46,38,29,22,49,32,18,30.24,30.15,4,2,6,0.00
2013-3-15,72,51,32,34,26,19,71,44,16,30.15,29.99,9,3,9,0.00
2013-3-16,62,61,58,31,26,18,34,27,21,29.94,29.90,4,3,4,0.00
2013-3-18,48,40,20,17,11,4,69,34,17,30.02,29.94,15,4,15,0.00
2013-3-19,52,48,36,13,5,-1,26,18,12,30.24,30.18,7,3,11,0.00
2013-3-20,57,41,21,25,20,11,69,46,27,30.11,29.86,6,2,6,0.00
2013-3-21,44,41,36,25,23,22,59,50,46,29.94,29.86,6,2,6,0.00
2013-3-22,35,24,17,22,15,8,75,67,48,29.95,29.93,9,2,11,0.00
2013-3-31,64,64,63,27,26,25,25,24,24,30.11,30.11,8,3,8,0.00
2013-4-3,71,60,43,31,28,24,46,30,19,30.21,30.10,14,3,14,0.00
2013-4-4,58,38,32,35,25,20,69,60,41,30.20,30.16,2,1,2,0.00
2013-4-8,36,36,36,28,28,28,74,74,73,29.83,29.83,2,1,2,0.00
2013-4-10,26,26,26,16,15,15,64,64,64,30.22,30.22,4,3,4,0.00
2013-4-13,58,47,42,40,31,22,74,54,44,29.63,29.60,7,4,7,0.00
2013-4-17,38,38,37,25,24,24,58,58,57,30.20,30.19,5,2,5,0.00
2013-4-19,50,49,48,29,29,28,47,46,44,29.98,29.97,4,1,4,0.00
2013-4-20,61,53,46,29,28,27,52,39,29,30.07,29.96,12,5,12,0.00
2013-4-21,65,58,40,37,29,22,74,36,22,30.12,29.98,10,4,10,0.00
2013-4-22,32,29,27,25,23,21,82,78,74,30.35,30.28,6,4,6,0.06
2013-4-23,51,45,37,26,20,17,48,38,32,30.20,30.16,5,2,5,0.00
2013-4-24,52,48,44,23,22,22,43,36,32,30.16,30.15,0,0,0,0.00
2013-4-25,70,65,54,20,18,14,24,17,13,30.07,29.99,8,4,10,0.00
2013-4-27,80,75,63,32,29,26,25,19,15,30.16,30.09,9,3,9,0.00
2013-4-28,73,66,57,33,30,26,36,26,18,30.04,29.99,14,4,14,0.00
2013-5-1,45,40,36,31,29,26,72,64,54,30.57,30.46,6,2,6,0.11
2013-5-3,58,58,58,26,26,26,29,29,29,30.16,30.16,1,1,1,0.00
2013-5-4,50,50,50,38,38,37,63,62,61,30.24,30.22,4,3,4,0.00
2013-5-5,62,61,58,34,33,33,40,36,34,30.14,30.13,6,3,6,0.00
2013-5-6,72,70,62,39,34,32,43,27,24,30.15,30.01,6,3,6,0.00
2013-5-8,69,67,63,38,37,36,38,33,31,30.17,30.15,6,2,6,0.00
2013-5-9,74,74,74,38,38,38,28,28,28,30.19,30.19,3,1,3,0.00
2013-5-12,88,84,80,42,36,33,21,18,16,30.20,30.15,9,5,9,0.00
2013-5-14,85,84,83,31,31,30,16,15,15,29.99,29.99,8,4,8,0.00
2013-5-15,73,72,70,42,40,38,36,32,28,30.02,29.99,7,4,7,0.00
2013-5-17,72,69,64,41,40,39,39,35,32,29.99,29.92,15,6,15,0.00
2013-5-18,78,67,57,48,44,40,63,45,28,30.02,29.93,13,5,13,0.04
2013-5-19,56,52,49,49,46,43,81,78,72,30.09,30.05,6,2,6,0.20
2013-5-20,55,55,55,38,38,38,53,51,51,30.20,30.19,7,2,7,0.00
2013-5-21,71,69,66,41,41,40,41,36,34,30.00,29.99,3,2,3,0.00
2013-5-24,80,76,64,32,29,28,26,19,16,30.05,30.02,6,2,6,0.00
2013-5-25,86,83,77,34,31,29,19,16,15,29.96,29.94,8,4,8,0.00
2013-5-26,81,79,76,33,33,32,21,19,18,29.93,29.92,2,1,2,0.00
2013-5-29,54,52,49,46,44,43,80,77,73,29.84,29.83,6,3,6,0.02
2013-6-1,66,65,65,41,41,40,42,41,41,30.32,30.31,8,3,8,0.00
2013-6-2,82,80,77,34,32,31,19,18,17,29.83,29.83,9,5,9,0.00
2013-6-7,53,52,50,44,42,41,70,70,70,30.17,30.17,4,2,4,0.00
2013-6-8,66,66,66,48,48,48,52,52,51,30.11,30.10,4,3,5,0.00
2013-6-9,90,88,82,38,38,37,21,18,16,29.97,29.96,4,1,4,0.00
2013-7-11,87,87,87,45,44,44,24,23,23,29.96,29.96,2,1,2,0.00
2013-7-15,97,89,73,52,47,42,41,25,16,30.12,30.05,6,1,6,0.00
2013-7-16,94,77,59,57,51,45,60,41,25,30.31,30.12,8,2,11,0.00
2013-7-17,94,76,57,59,52,46,72,47,26,30.32,30.18,5,2,5,0.00
2013-7-22,100,100,100,36,34,33,11,10,10,30.05,30.04,12,3,12,0.00
2013-7-24,91,90,88,55,53,50,30,29,25,30.23,30.17,6,3,6,0.00
2013-7-26,95,92,90,48,47,46,23,22,21,30.22,30.18,7,3,7,0.00
2013-7-31,80,78,77,54,53,52,44,43,39,30.35,30.31,3,2,4,0.00
2013-8-13,88,82,77,51,48,43,39,31,24,30.31,30.24,4,2,4,0.00
2013-8-20,90,78,72,55,51,50,47,39,30,30.20,30.15,4,2,4,0.00
2013-9-10,67,63,61,55,54,53,75,72,65,30.27,30.26,2,0,2,0.00
2013-9-16,64,64,64,58,58,58,82,81,81,30.20,30.20,3,2,3,0.00
2013-9-27,41,39,38,36,34,33,84,84,82,30.04,30.04,1,0,1,0.02
2013-9-29,69,69,69,44,43,43,40,40,39,29.94,29.94,11,5,11,0.00
2013-9-30,74,74,74,42,42,42,32,32,32,29.89,29.89,5,2,5,0.00
2013-10-29,29,29,28,22,22,22,77,77,77,30.01,30.00,0,0,0,0.00
2013-10-30,32,32,32,28,28,28,84,84,83,29.98,29.98,0,0,0,0.00
2013-10-31,40,38,36,34,32,31,82,80,78,30.01,29.99,2,1,2,0.00
2013-11-1,52,47,39,31,29,27,62,50,44,30.22,30.20,3,1,4,0.00
2013-11-2,44,42,41,35,34,33,75,74,71,30.05,30.03,2,2,2,0.00
2013-11-3,49,47,45,34,32,27,66,57,42,29.81,29.81,6,2,6,0.00
2013-11-4,42,38,28,19,18,16,60,44,39,30.05,29.98,5,2,5,0.00
2013-11-8,60,59,58,31,30,29,33,33,33,29.97,29.96,7,3,7,0.00
2013-11-10,62,62,62,36,36,36,39,39,39,30.21,30.21,0,0,0,0.00
2013-11-21,24,17,12,16,9,3,69,68,67,30.53,30.43,2,0,2,0.00
2013-11-26,14,14,14,8,8,8,78,78,78,30.43,30.43,3,2,3,0.00
2013-11-29,27,27,27,19,18,18,71,70,70,30.22,30.22,4,1,4,0.00
2013-11-30,31,30,29,20,19,19,67,65,64,30.21,30.20,4,2,4,0.00
2013-12-1,50,43,35,35,30,24,65,61,50,30.05,29.95,4,2,4,0.00
2013-12-2,50,40,30,29,27,24,80,63,44,29.79,29.67,15,5,15,0.00
2013-12-3,22,15,10,17,8,4,80,76,74,29.96,29.75,6,4,6,0.00
2013-12-14,12,12,11,5,5,4,74,74,73,30.28,30.28,3,2,4,0.00
2014-1-1,32,31,30,28,27,26,86,85,82,30.33,30.32,5,2,5,0.00
2014-1-2,27,20,13,18,13,8,82,75,67,30.28,30.17,4,1,4,0.00